www.pogodaiklimat.ru

АРХИВ ПОГОДЫ в Лос-Анджелесе

Время (UTC), дата Ветер
(напр.,м/с)
 
Видим.   Явления Облачность Т
(С)
Тd
(С)
f
(%)
Тe
(С)
Тes
(С)
Комфортность

P
(гПа)

Po
(гПа)
Тmin
(С)
Tmax
(С)
R
(мм)
SD
(см)
06:53 16.06 ЮЗ  16 км    ясно  +16.7  +12.2  75  +16  +16    1015.4  1010.9         
07:53 16.06 ЮЗ  16 км    ясно  +16.1  +12.2  78  +15  +15    1014.9  1010.6         
08:53 16.06 Ю  16 км    ясно  +16.1  +12.2  78  +16  +16    1014.5  1010.2         
09:53 16.06 Ю  16 км    ясно  +15.6  +12.2  80  +15  +15    1014.4  1009.9         
10:53 16.06 штиль  16 км    ясно  +15.6  +11.7  78  +15  +15    1014.4  1009.9         
11:53 16.06 штиль  16 км    ясно  +15.0  +11.1  77  +15  +15    1014.7  1010.2  +15.0  +17.2     
12:53 16.06 В  16 км  дым  2/0 3000 м
[средняя] 
+13.9  +11.7  87  +14  +14    1015.1  1010.6         
13:53 16.06 нст  14 км  дым  2/0 3000 м
[средняя] 
+16.1  +11.7  75  +16  +16    1015.7  1011.2         
14:53 16.06 В  16 км  дым  2/0 3000 м
[средняя] 
+17.8  +11.1  65  +18  +19    1016.2  1011.6         
15:53 16.06 Ю  14 км    8/0 3000 м
[средняя] 
+18.3  +11.1  63  +19  +21    1.0  1012.2         
16:53 16.06 З  14 км    8/0 3600 м
[средняя верхняя] 
+20.0  +12.2  61  +22  +24  комфорт  1.0  1012.2         
17:53 16.06 З  14 км    5/0 3600 м
[средняя верхняя] 
+20.0  +11.7  59  +21  +25  комфорт  1.0  1012.6         
18:53 16.06 З  14 км    5/0 2700 м
[средняя] 
+21.1  +11.7  55  +23  +29  комфорт  1.0  1012.9         
19:53 16.06 З  14 км    5/0 2700 м
[средняя] 
+21.1  +10.6  51  +23  +26  комфорт  1.0  1012.9         
20:53 16.06 З  14 км    2/0 6000 м
[средняя] 
+21.1  +11.1  53  +23  +27  комфорт  1.0  1012.6         
21:53 16.06 З  16 км    ясно  +21.1  +11.1  53  +23  +27  комфорт  1.0  1012.2         
22:53 16.06 З  16 км    ясно  +21.1  +10.6  51  +23  +27  комфорт  1.0  1011.9         
23:53 16.06 З  16 км    ясно  +20.6  +10.6  53  +22  +25  комфорт  1.0  1011.2  +20.0  +21.7     
00:53 17.06 З  16 км    ясно  +20.0  +12.2  61  +21  +24  комфорт  1.0  1010.9         
01:53 17.06 З  13 км    ясно  +18.9  +12.8  68  +19  +20    1.0  1010.9         
02:53 17.06 З  14 км    ясно  +18.9  +11.1  61  +19  +20    1.0  1010.9         
03:53 17.06 З  16 км    ясно  +17.2  +13.9  81  +17  +17    1015.4  1010.9         
04:53 17.06 ЮЗ  16 км    ясно  +17.2  +13.9  81  +17  +17    1015.4  1010.9         
05:53 17.06 ЮЗ  16 км    ясно  +17.2  +12.8  75  +17  +17    1015.5  1011.2  +17.2  +20.6     
06:53 17.06 ЮЗ  16 км    ясно  +17.2  +14.4  84  +17  +17    1015.6  1011.2         
07:53 17.06 З  16 км    ясно  +17.2  +13.9  81  +17  +17    1015.3  1010.9         
08:53 17.06 ЮЗ  16 км    2/2 1140 м  +16.7  +13.9  84  +17  +17    1015.1  1010.6         
09:53 17.06 В  16 км    2/2 1170 м  +16.1  +13.9  87  +16  +16    1015.1  1010.6         
10:53 17.06 штиль  16 км    2/2 1170 м  +16.1  +13.3  83  +16  +16    1015.2  1010.9         
11:53 17.06 В  16 км    2/2 1170 м  +15.6  +12.8  83  +16  +16    1015.4  1010.9  +15.6  +17.8     
12:53 17.06 В  16 км  дым  2/0 2100 м
[средняя] 
+15.6  +13.3  86  +16  +16    1016.1  1011.6         
13:53 17.06 СВ  14 км  дым  8/5 960 м
[средняя] 
+17.8  +13.3  75  +19  +19    1016.4  1011.9         
14:53 17.06 СВ  14 км  дым  8/8 900 м
[средняя] 
+19.4  +11.7  61  +21  +22  комфорт  1016.9  1012.6         
15:53 17.06 ЮВ  14 км  дым  8/8 900 м
[средняя] 
+21.1  +10.6  51  +23  +24  комфорт  1017.0  1012.6         
16:53 17.06 Ю  13 км  дым  8/8 900 м
[средняя] 
+22.8  +10.0  44  +25  +26  комфорт  1017.0  1012.6         
17:53 17.06 З  13 км  дым  8/8 990 м
[средняя] 
+23.9  +12.8  50  +26  +27  жарко  1017.1  1012.6  +15.6  +24.4     
18:53 17.06 З  13 км    5/2 960 м
[средняя] 
+23.9  +12.8  50  +26  +32  жарко  1017.1  1012.6         
19:53 17.06 З  13 км    5/2 900 м
[средняя] 
+22.8  +14.4  59  +26  +33  жарко  1017.1  1012.6         
20:53 17.06 З   13 км    5/0 5400 м
[средняя] 
+23.3  +13.3  53  +26  +29  жарко  1016.7  1012.2         
21:53 17.06 З  14 км  дым  5/5 750 м
[средняя] 
+23.3  +11.1  46  +26  +27  жарко  1016.1  1011.6         
22:53 17.06 З  16 км  дым  5/2 750 м
[средняя] 
+22.8  +12.2  51  +25  +26  комфорт  1015.4  1010.9         
23:53 17.06 З  16 км  дым  5/2 780 м
[средняя] 
+22.2  +11.1  49  +24  +26  комфорт  1015.2  1010.6  +21.7  +24.4     
00:53 18.06 З  16 км    5/0 5400 м
[средняя] 
+22.2  +11.7  51  +24  +25  комфорт  1015.0  1010.6         
01:53 18.06 З  16 км    8/0 5400 м
[средняя] 
+21.1  +12.8  59  +23  +24  комфорт  1014.8  1010.2         
02:53 18.06 ЮЗ  16 км    8/0 5400 м
[средняя] 
+20.0  +13.3  65  +22  +22  комфорт  1014.9  1010.6         
03:53 18.06 З  16 км    8/0 6000 м
[средняя] 
+20.6  +13.9  65  +23  +23  комфорт  1015.0  1010.6         
04:53 18.06 ЮЗ  16 км    5/0 6000 м
[средняя] 
+17.8  +15.0  84  +17  +17    1015.5  1011.2         
05:53 18.06 ЮЗ  16 км    5/0 6000 м
[средняя] 
+17.8  +15.0  84  +18  +18    1015.8  1011.6  +17.8  +22.8     

 

Местоположение метеостанции Los Angeles International Airport: широта 33.9381 долгота -118.3889 высота над уровнем моря 38 м.

В архиве по умолчанию представлена погода в Лос-Анджелесе за последние 1-2 суток. Обновление информации о фактической погоде в базе происходит ежечасно! Архивные данные за месяц целиком и за предыдущие месяцы Вы можете получить, выбрав интересующий диапазон дат из раскрывающегося списка и нажав кнопку "Ввод!".

Внимание! Архив погоды МЕТАР в базе сайта в настоящее время начинается c 1 января 2013 г. Нет смысла пытаться выбрать более раннюю дату.

Внимание! Время в таблицах - всемирное. Для получения местного времени необходимо прибавить поправку, которая в Лос-Анджелесе равна -8 ч.

Ветер - указаны скорость ветра в м/с и направление, откуда дует ветер: С - северный, СВ - северо-восточный, В - восточный, ЮВ - юго-восточный, Ю - южный, ЮЗ - юго-западный, З - западный, СЗ - северо-западный.
Видимость - горизонтальная дальность видимости в метрах или километрах. При видимости от 1 до 10 км при отсутствии осадков обычно наблюдается дымка, при ухудшении видимости до 1 км и менее - туман. В сухую погоду видимость может ухудшаться дымом, пылью или мглою.
Атмосферные явления - указаны явления, наблюдавшиеся в указанный момент времени.
Облачность - указаны через наклонную черту верхняя и нижняя облачность в баллах и высота нижней границы облаков в метрах. Внимание: облачность, как и прочие метеорологические величины в США измеряются автоматическими метеостанциями. Указанные значения в баллах носят условный характер и показывают процент времени, в течение которого, в среднем, лазерный луч высотомера отражался от облаков обратно.
T - Температура воздуха - температура, измеренная на высоте 2 м над землей.
Td - Температура точки росы - температура, при понижении до которой содержащийся в воздухе водяной пар достигнет насыщения.
f - Относительная влажность воздуха - влажноcть воздуха, измеренная на высоте 2 м над землей.
Te - Эффективная температура - температура, которую ощущает одетый по сезону человек в тени. Характеристика душности погоды. При расчете учитывается влияние влажности воздуха и скорости ветра на теплоощущения человека.
Tes - Эффективная температура на солнце - температура, которую ощущает человек, с поправкой на солнечный нагрев. Характеристика знойности погоды. Зависит от высоты солнца над горизонтом, облачности и скорости ветра. Ночью, в пасмурную погоду, а также при ветре 12 м/с и более поправка равна нулю.
P - Атмосферное давление - приведенное к уровню моря атмосферное давление.
Po - Атмосферное давление - измеренное на уровне метеостанции атмосферное давление.
Tmin - Минимальная температура - минимум температуры воздуха на высоте 2 м над землей.
Tmax - Максимальная температура - максимум температуры воздуха на высоте 2 м над землей.
R - Количество осадков - Количество выпавших осадков за 3 или 6 часов, мм.
SD - Снежный покров - Высота снежного покрова, см.